timestamp,wind_dir_avg,wind_spd_max_dir,wind_spd_avg,wind_spd_gust,battery_voltage,lat,long
2018-11-04 00:00:00+00:00,227.0,236.0,14.75,18.43,,47.59359,-54.27349
2018-11-04 00:10:00+00:00,221.0,213.0,13.01,16.21,,47.59359,-54.27349
2018-11-04 00:20:00+00:00,222.0,222.0,14.02,15.69,,47.59359,-54.27349
2018-11-04 00:30:00+00:00,223.0,222.0,12.27,14.01,,47.59359,-54.27349
2018-11-04 00:40:00+00:00,222.0,224.0,11.76,12.99,,47.59359,-54.27349
2018-11-04 00:50:00+00:00,221.0,220.0,11.34,12.67,,47.59359,-54.27349
2018-11-04 01:00:00+00:00,220.0,224.0,11.17,12.54,,47.59359,-54.27349
2018-11-04 01:10:00+00:00,221.0,221.0,10.6,11.8,,47.59359,-54.27349
2018-11-04 01:20:00+00:00,224.0,224.0,9.98,11.44,,47.59359,-54.27349
2018-11-04 01:30:00+00:00,224.0,226.0,9.44,10.56,,47.59359,-54.27349
2018-11-04 01:40:00+00:00,197.0,214.0,7.84,8.71,,47.59359,-54.27349
2018-11-04 01:50:00+00:00,214.0,211.0,11.36,14.3,,47.59359,-54.27349
2018-11-04 02:00:00+00:00,221.0,229.0,10.99,12.99,,47.59359,-54.27349
2018-11-04 02:10:00+00:00,219.0,226.0,11.7,15.17,,47.59359,-54.27349
2018-11-04 02:20:00+00:00,219.0,212.0,11.59,12.64,,47.59359,-54.27349
2018-11-04 02:30:00+00:00,221.0,232.0,12.06,16.75,,47.59359,-54.27349
2018-11-04 02:40:00+00:00,230.0,237.0,14.18,18.0,,47.59359,-54.27349
2018-11-04 02:50:00+00:00,233.0,232.0,15.11,17.99,,47.59359,-54.27349
2018-11-04 03:00:00+00:00,232.0,241.0,11.72,15.64,,47.59359,-54.27349
2018-11-04 03:10:00+00:00,232.0,237.0,11.16,14.08,,47.59359,-54.27349
2018-11-04 03:20:00+00:00,233.0,238.0,9.66,13.1,,47.59359,-54.27349
2018-11-04 03:30:00+00:00,234.0,238.0,13.25,17.89,,47.59359,-54.27349
2018-11-04 03:40:00+00:00,236.0,240.0,15.03,17.94,,47.59359,-54.27349
2018-11-04 03:50:00+00:00,235.0,246.0,9.84,14.17,,47.59359,-54.27349
2018-11-04 04:00:00+00:00,240.0,240.0,15.13,18.24,,47.59359,-54.27349
2018-11-04 04:10:00+00:00,230.0,230.0,16.82,18.87,,47.59359,-54.27349
2018-11-04 04:20:00+00:00,228.0,223.0,16.78,19.66,,47.59359,-54.27349
2018-11-04 04:30:00+00:00,229.0,232.0,16.37,18.83,,47.59359,-54.27349
2018-11-04 04:40:00+00:00,231.0,231.0,14.38,16.2,,47.59359,-54.27349
2018-11-04 04:50:00+00:00,233.0,226.0,13.49,15.82,,47.59359,-54.27349
2018-11-04 05:00:00+00:00,226.0,224.0,16.04,19.2,,47.59359,-54.27349
2018-11-04 05:10:00+00:00,230.0,234.0,14.97,16.87,,47.59359,-54.27349
2018-11-04 05:20:00+00:00,241.0,246.0,16.2,18.83,,47.59359,-54.27349
2018-11-04 05:30:00+00:00,230.0,225.0,13.86,16.44,,47.59359,-54.27349
2018-11-04 05:40:00+00:00,232.0,233.0,14.06,15.99,,47.59359,-54.27349
2018-11-04 05:50:00+00:00,225.0,230.0,15.19,18.88,,47.59359,-54.27349
2018-11-04 06:00:00+00:00,236.0,242.0,19.82,24.75,,47.59359,-54.27349
2018-11-04 06:10:00+00:00,244.0,251.0,19.08,23.39,,47.59359,-54.27349
2018-11-04 06:20:00+00:00,237.0,240.0,20.74,25.44,,47.59359,-54.27349
2018-11-04 06:30:00+00:00,239.0,234.0,17.09,20.63,,47.59359,-54.27349
2018-11-04 06:40:00+00:00,247.0,252.0,17.38,20.72,,47.59359,-54.27349
2018-11-04 06:50:00+00:00,246.0,245.0,17.62,21.54,,47.59359,-54.27349
2018-11-04 07:00:00+00:00,243.0,237.0,18.18,21.47,,47.59359,-54.27349
2018-11-04 07:10:00+00:00,242.0,240.0,17.05,21.3,,47.59359,-54.27349
2018-11-04 07:20:00+00:00,242.0,244.0,15.45,20.25,,47.59359,-54.27349
2018-11-04 07:30:00+00:00,230.0,230.0,14.78,17.89,,47.59359,-54.27349
2018-11-04 07:40:00+00:00,224.0,225.0,15.94,17.94,,47.59359,-54.27349
2018-11-04 07:50:00+00:00,236.0,239.0,14.92,19.07,,47.59359,-54.27349
2018-11-04 08:00:00+00:00,228.0,222.0,18.18,22.4,,47.59359,-54.27349
2018-11-04 08:10:00+00:00,234.0,228.0,19.05,21.2,,47.59359,-54.27349
2018-11-04 08:20:00+00:00,230.0,224.0,16.61,19.3,,47.59359,-54.27349
2018-11-04 08:30:00+00:00,235.0,234.0,19.09,21.76,,47.59359,-54.27349
2018-11-04 08:40:00+00:00,244.0,253.0,19.0,24.85,,47.59359,-54.27349
2018-11-04 08:50:00+00:00,240.0,244.0,18.95,24.79,,47.59359,-54.27349
2018-11-04 09:00:00+00:00,238.0,237.0,18.31,23.39,,47.59359,-54.27349
2018-11-04 09:10:00+00:00,239.0,239.0,16.13,21.24,,47.59359,-54.27349
2018-11-04 09:20:00+00:00,241.0,250.0,17.52,20.59,,47.59359,-54.27349
2018-11-04 09:30:00+00:00,244.0,247.0,17.6,20.74,,47.59359,-54.27349
2018-11-04 09:40:00+00:00,243.0,248.0,15.42,18.91,,47.59359,-54.27349
2018-11-04 09:50:00+00:00,249.0,252.0,18.51,21.02,,47.59359,-54.27349
2018-11-04 10:00:00+00:00,248.0,250.0,16.38,19.7,,47.59359,-54.27349
2018-11-04 10:10:00+00:00,249.0,253.0,19.01,23.37,,47.59359,-54.27349
2018-11-04 10:20:00+00:00,252.0,243.0,19.55,22.86,,47.59359,-54.27349
2018-11-04 10:30:00+00:00,254.0,255.0,18.72,22.58,,47.59359,-54.27349
2018-11-04 10:40:00+00:00,255.0,258.0,18.22,21.04,,47.59359,-54.27349
2018-11-04 10:50:00+00:00,261.0,258.0,19.21,22.34,,47.59359,-54.27349
2018-11-04 11:00:00+00:00,258.0,263.0,16.79,19.63,,47.59359,-54.27349
2018-11-04 11:10:00+00:00,255.0,258.0,15.27,18.02,,47.59359,-54.27349
2018-11-04 11:20:00+00:00,258.0,255.0,18.03,20.87,,47.59359,-54.27349
2018-11-04 11:30:00+00:00,250.0,248.0,17.65,22.35,,47.59359,-54.27349
2018-11-04 11:40:00+00:00,256.0,257.0,19.11,24.37,,47.59359,-54.27349
2018-11-04 11:50:00+00:00,257.0,258.0,18.0,21.96,,47.59359,-54.27349
2018-11-04 12:00:00+00:00,254.0,249.0,16.98,20.91,,47.59359,-54.27349
2018-11-04 12:10:00+00:00,254.0,258.0,17.41,21.21,,47.59359,-54.27349
2018-11-04 12:20:00+00:00,262.0,263.0,15.34,18.62,,47.59359,-54.27349
2018-11-04 12:30:00+00:00,259.0,256.0,18.92,23.58,,47.59359,-54.27349
2018-11-04 12:40:00+00:00,263.0,251.0,18.1,23.22,,47.59359,-54.27349
2018-11-04 12:50:00+00:00,263.0,255.0,15.83,18.15,,47.59359,-54.27349
2018-11-04 13:00:00+00:00,260.0,260.0,15.79,19.34,,47.59359,-54.27349
2018-11-04 13:10:00+00:00,265.0,270.0,15.82,18.5,,47.59359,-54.27349
2018-11-04 13:20:00+00:00,269.0,272.0,16.33,20.4,,47.59359,-54.27349
2018-11-04 13:30:00+00:00,265.0,265.0,14.25,17.35,,47.59359,-54.27349
2018-11-04 13:40:00+00:00,264.0,268.0,17.18,23.57,,47.59359,-54.27349
2018-11-04 13:50:00+00:00,268.0,265.0,18.49,23.06,,47.59359,-54.27349
2018-11-04 14:00:00+00:00,263.0,270.0,18.46,22.28,,47.59359,-54.27349
2018-11-04 14:10:00+00:00,267.0,275.0,21.24,24.73,,47.59359,-54.27349
2018-11-04 14:20:00+00:00,266.0,268.0,19.26,23.83,,47.59359,-54.27349
2018-11-04 14:30:00+00:00,268.0,263.0,15.99,19.68,,47.59359,-54.27349
2018-11-04 14:40:00+00:00,269.0,269.0,19.63,24.78,,47.59359,-54.27349
2018-11-04 14:50:00+00:00,270.0,271.0,15.88,19.12,,47.59359,-54.27349
2018-11-04 15:00:00+00:00,268.0,270.0,18.71,24.23,,47.59359,-54.27349
2018-11-04 15:10:00+00:00,266.0,272.0,20.53,26.14,,47.59359,-54.27349
2018-11-04 15:20:00+00:00,275.0,282.0,17.91,21.58,,47.59359,-54.27349
2018-11-04 15:30:00+00:00,264.0,265.0,25.06,28.66,,47.59359,-54.27349
2018-11-04 15:40:00+00:00,272.0,278.0,21.55,26.52,,47.59359,-54.27349
2018-11-04 15:50:00+00:00,267.0,270.0,19.52,23.8,,47.59359,-54.27349
2018-11-04 16:00:00+00:00,268.0,267.0,20.66,24.44,,47.59359,-54.27349
2018-11-04 16:10:00+00:00,268.0,270.0,15.39,18.56,,47.59359,-54.27349
2018-11-04 16:20:00+00:00,273.0,266.0,17.72,19.91,,47.59359,-54.27349
2018-11-04 16:30:00+00:00,272.0,278.0,18.95,23.94,,47.59359,-54.27349
2018-11-04 16:40:00+00:00,277.0,274.0,19.47,24.38,,47.59359,-54.27349
2018-11-04 16:50:00+00:00,273.0,274.0,21.49,26.34,,47.59359,-54.27349
2018-11-04 17:00:00+00:00,274.0,267.0,25.11,30.17,,47.59359,-54.27349
2018-11-04 17:10:00+00:00,275.0,281.0,21.83,27.25,,47.59359,-54.27349
2018-11-04 17:20:00+00:00,278.0,280.0,25.31,30.57,,47.59359,-54.27349
2018-11-04 17:30:00+00:00,277.0,280.0,22.96,28.37,,47.59359,-54.27349
2018-11-04 17:40:00+00:00,276.0,282.0,21.81,26.62,,47.59359,-54.27349
2018-11-04 17:50:00+00:00,278.0,274.0,21.23,26.48,,47.59359,-54.27349
2018-11-04 18:00:00+00:00,269.0,268.0,22.39,33.65,,47.59359,-54.27349
2018-11-04 18:10:00+00:00,272.0,276.0,20.88,28.22,,47.59359,-54.27349
2018-11-04 18:20:00+00:00,275.0,269.0,24.77,30.83,,47.59359,-54.27349
2018-11-04 18:30:00+00:00,273.0,269.0,19.55,25.2,,47.59359,-54.27349
2018-11-04 18:40:00+00:00,273.0,273.0,21.65,26.7,,47.59359,-54.27349
2018-11-04 18:50:00+00:00,284.0,289.0,20.46,25.04,,47.59359,-54.27349
2018-11-04 19:00:00+00:00,275.0,275.0,21.95,27.86,,47.59359,-54.27349
2018-11-04 19:10:00+00:00,285.0,290.0,20.85,24.98,,47.59359,-54.27349
2018-11-04 19:20:00+00:00,280.0,272.0,20.68,25.23,,47.59359,-54.27349
2018-11-04 19:30:00+00:00,276.0,279.0,20.22,25.07,,47.59359,-54.27349
2018-11-04 19:40:00+00:00,278.0,275.0,17.53,22.34,,47.59359,-54.27349
2018-11-04 19:50:00+00:00,274.0,271.0,22.68,28.3,,47.59359,-54.27349
2018-11-04 20:00:00+00:00,280.0,276.0,20.78,27.29,,47.59359,-54.27349
2018-11-04 20:10:00+00:00,281.0,280.0,16.0,19.01,,47.59359,-54.27349
2018-11-04 20:20:00+00:00,280.0,271.0,18.11,21.98,,47.59359,-54.27349
2018-11-04 20:30:00+00:00,283.0,286.0,18.29,21.38,,47.59359,-54.27349
2018-11-04 20:40:00+00:00,281.0,276.0,15.08,17.79,,47.59359,-54.27349
2018-11-04 20:50:00+00:00,281.0,284.0,15.36,18.19,,47.59359,-54.27349
2018-11-04 21:00:00+00:00,279.0,276.0,17.08,21.77,,47.59359,-54.27349
2018-11-04 21:10:00+00:00,274.0,272.0,14.5,16.33,,47.59359,-54.27349
2018-11-04 21:20:00+00:00,279.0,279.0,17.41,20.03,,47.59359,-54.27349
2018-11-04 21:30:00+00:00,279.0,276.0,14.41,17.02,,47.59359,-54.27349
2018-11-04 21:40:00+00:00,291.0,300.0,15.6,18.41,,47.59359,-54.27349
2018-11-04 21:50:00+00:00,310.0,318.0,12.62,14.98,,47.59359,-54.27349
2018-11-04 22:00:00+00:00,290.0,288.0,18.01,20.64,,47.59359,-54.27349
2018-11-04 22:10:00+00:00,293.0,296.0,15.17,17.95,,47.59359,-54.27349
2018-11-04 22:20:00+00:00,297.0,292.0,14.17,18.75,,47.59359,-54.27349
2018-11-04 22:30:00+00:00,290.0,289.0,13.45,16.95,,47.59359,-54.27349
2018-11-04 22:40:00+00:00,296.0,306.0,15.02,18.99,,47.59359,-54.27349
2018-11-04 22:50:00+00:00,300.0,298.0,13.26,17.04,,47.59359,-54.27349
2018-11-04 23:00:00+00:00,308.0,317.0,15.9,18.26,,47.59359,-54.27349
2018-11-04 23:10:00+00:00,295.0,290.0,14.79,18.88,,47.59359,-54.27349
2018-11-04 23:20:00+00:00,289.0,292.0,15.22,17.19,,47.59359,-54.27349
2018-11-04 23:30:00+00:00,289.0,295.0,13.17,15.1,,47.59359,-54.27349
2018-11-04 23:40:00+00:00,283.0,282.0,14.58,17.72,,47.59359,-54.27349
2018-11-04 23:50:00+00:00,280.0,281.0,14.64,17.79,,47.59359,-54.27349
